Time,TemperatureF,DewpointF,PressureIn,WindDirection,WindDirectionDegrees,WindSpeedMPH,WindSpeedGustMPH,Humidity,HourlyPrecipIn,Conditions,Clouds,dailyrainin,SolarRadiationWatts/m^2,SoftwareType,DateUTC
2013-06-04 00:03:00,75.2,72.0,29.83,ESE,120,0.0,-999.0,90,-99.99,,,0.00,0,weatherlink.com 1.10,2013-06-04 05:03:00,
2013-06-04 00:18:00,75.1,72.0,29.82,East,88,0.0,-999.0,90,-99.99,,,0.00,0,weatherlink.com 1.10,2013-06-04 05:18:00,
2013-06-04 00:33:00,74.7,72.0,29.82,East,98,0.0,-999.0,90,-99.99,,,0.00,0,weatherlink.com 1.10,2013-06-04 05:33:00,
2013-06-04 00:48:00,74.5,72.0,29.82,ESE,119,0.0,-999.0,90,-99.99,,,0.00,0,weatherlink.com 1.10,2013-06-04 05:48:00,
2013-06-04 01:03:00,74.1,71.0,29.81,ESE,119,0.0,-999.0,91,-99.99,,,0.00,0,weatherlink.com 1.10,2013-06-04 06:03:00,
2013-06-04 01:18:00,73.9,71.0,29.81,ESE,119,0.0,-999.0,91,-99.99,,,0.00,0,weatherlink.com 1.10,2013-06-04 06:18:00,
2013-06-04 01:33:00,73.5,71.0,29.81,ESE,119,0.0,-999.0,92,-99.99,,,0.00,0,weatherlink.com 1.10,2013-06-04 06:33:00,
2013-06-04 01:48:00,73.1,71.0,29.80,ESE,119,0.0,-999.0,92,-99.99,,,0.00,0,weatherlink.com 1.10,2013-06-04 06:48:00,
2013-06-04 02:03:00,73.3,71.0,29.81,ESE,119,0.0,-999.0,93,-99.99,,,0.00,0,weatherlink.com 1.10,2013-06-04 07:03:00,
2013-06-04 02:18:00,72.7,71.0,29.80,SSW,203,0.0,-999.0,93,-99.99,,,0.00,0,weatherlink.com 1.10,2013-06-04 07:18:00,
2013-06-04 02:33:00,72.6,71.0,29.79,SSW,203,0.0,-999.0,94,-99.99,,,0.00,0,weatherlink.com 1.10,2013-06-04 07:33:00,
2013-06-04 02:48:00,72.6,71.0,29.79,SSW,203,0.0,-999.0,94,-99.99,,,0.00,0,weatherlink.com 1.10,2013-06-04 07:48:00,
2013-06-04 03:03:00,72.5,71.0,29.79,SSW,203,0.0,-999.0,95,-99.99,,,0.00,0,weatherlink.com 1.10,2013-06-04 08:03:00,
2013-06-04 03:18:00,72.2,71.0,29.79,SSW,203,0.0,-999.0,95,-99.99,,,0.00,0,weatherlink.com 1.10,2013-06-04 08:18:00,
2013-06-04 03:33:00,71.8,70.0,29.79,SSW,203,0.0,-999.0,95,-99.99,,,0.00,0,weatherlink.com 1.10,2013-06-04 08:33:00,
2013-06-04 03:48:00,71.7,70.0,29.79,SSW,203,0.0,-999.0,95,-99.99,,,0.00,0,weatherlink.com 1.10,2013-06-04 08:48:00,
2013-06-04 04:03:00,71.6,70.0,29.79,SSW,203,0.0,-999.0,95,-99.99,,,0.00,0,weatherlink.com 1.10,2013-06-04 09:03:00,
2013-06-04 04:18:00,71.6,70.0,29.79,SSW,203,0.0,-999.0,95,-99.99,,,0.00,0,weatherlink.com 1.10,2013-06-04 09:18:00,
2013-06-04 04:33:00,71.2,70.0,29.79,SSW,203,0.0,-999.0,95,-99.99,,,0.00,0,weatherlink.com 1.10,2013-06-04 09:33:00,
2013-06-04 04:48:00,70.8,69.0,29.79,SSW,203,0.0,-999.0,95,-99.99,,,0.00,0,weatherlink.com 1.10,2013-06-04 09:48:00,
2013-06-04 05:03:00,71.0,70.0,29.79,SSW,203,0.0,-999.0,96,-99.99,,,0.00,0,weatherlink.com 1.10,2013-06-04 10:03:00,
2013-06-04 05:18:00,71.0,70.0,29.79,SSW,203,0.0,-999.0,96,-99.99,,,0.00,0,weatherlink.com 1.10,2013-06-04 10:18:00,
2013-06-04 05:33:00,71.3,70.0,29.79,SSW,203,0.0,-999.0,96,-99.99,,,0.00,0,weatherlink.com 1.10,2013-06-04 10:33:00,
2013-06-04 05:48:00,71.0,70.0,29.80,SSW,203,0.0,-999.0,96,-99.99,,,0.00,0,weatherlink.com 1.10,2013-06-04 10:48:00,
2013-06-04 06:03:00,71.3,70.0,29.80,SSW,203,0.0,-999.0,96,-99.99,,,0.00,0,weatherlink.com 1.10,2013-06-04 11:03:00,
2013-06-04 06:19:00,71.6,70.0,29.80,SSW,203,0.0,-999.0,96,-99.99,,,0.00,0,weatherlink.com 1.10,2013-06-04 11:19:00,
2013-06-04 06:34:00,71.6,70.0,29.80,SSW,203,0.0,-999.0,96,-99.99,,,0.00,5,weatherlink.com 1.10,2013-06-04 11:34:00,
2013-06-04 06:49:00,71.6,70.0,29.80,SSW,203,0.0,-999.0,96,-99.99,,,0.00,19,weatherlink.com 1.10,2013-06-04 11:49:00,
2013-06-04 07:04:00,71.6,70.0,29.81,SSW,203,0.0,-999.0,96,-99.99,,,0.00,33,weatherlink.com 1.10,2013-06-04 12:04:00,
2013-06-04 07:19:00,71.8,71.0,29.81,SSW,203,0.0,-999.0,97,-99.99,,,0.00,46,weatherlink.com 1.10,2013-06-04 12:19:00,
2013-06-04 07:34:00,73.2,72.0,29.81,SSW,203,0.0,-999.0,97,-99.99,,,0.00,130,weatherlink.com 1.10,2013-06-04 12:34:00,
2013-06-04 07:49:00,74.6,74.0,29.82,SSW,203,0.0,-999.0,97,-99.99,,,0.00,186,weatherlink.com 1.10,2013-06-04 12:49:00,
2013-06-04 08:04:00,75.3,74.0,29.82,SSW,203,0.0,-999.0,97,-99.99,,,0.00,192,weatherlink.com 1.10,2013-06-04 13:04:00,
2013-06-04 08:19:00,75.2,74.0,29.82,SSW,203,0.0,-999.0,96,-99.99,,,0.00,220,weatherlink.com 1.10,2013-06-04 13:19:00,
2013-06-04 08:34:00,75.8,75.0,29.83,SSW,203,0.0,-999.0,96,-99.99,,,0.00,287,weatherlink.com 1.10,2013-06-04 13:34:00,
2013-06-04 08:49:00,77.1,75.0,29.83,South,170,0.0,-999.0,94,-99.99,,,0.00,367,weatherlink.com 1.10,2013-06-04 13:49:00,
2013-06-04 09:04:00,78.4,75.0,29.83,South,188,1.0,-999.0,90,-99.99,,,0.00,468,weatherlink.com 1.10,2013-06-04 14:04:00,
2013-06-04 09:19:00,79.6,75.0,29.83,South,178,0.0,-999.0,86,-99.99,,,0.00,599,weatherlink.com 1.10,2013-06-04 14:19:00,
2013-06-04 09:34:00,80.9,75.0,29.83,South,175,2.0,-999.0,81,-99.99,,,0.00,380,weatherlink.com 1.10,2013-06-04 14:34:00,
2013-06-04 09:49:00,80.9,74.0,29.83,SSW,196,1.0,-999.0,80,-99.99,,,0.00,302,weatherlink.com 1.10,2013-06-04 14:49:00,
2013-06-04 10:04:00,80.7,74.0,29.83,SE,124,2.0,-999.0,79,-99.99,,,0.00,752,weatherlink.com 1.10,2013-06-04 15:04:00,
2013-06-04 10:19:00,84.1,74.0,29.83,SSW,201,2.0,-999.0,71,-99.99,,,0.00,824,weatherlink.com 1.10,2013-06-04 15:19:00,
2013-06-04 10:34:00,84.5,75.0,29.83,SSE,161,0.0,-999.0,72,-99.99,,,0.00,856,weatherlink.com 1.10,2013-06-04 15:34:00,
2013-06-04 10:49:00,84.0,74.0,29.83,SE,142,3.0,-999.0,71,-99.99,,,0.00,779,weatherlink.com 1.10,2013-06-04 15:49:00,
2013-06-04 11:04:00,86.0,75.0,29.82,East,84,1.0,-999.0,69,-99.99,,,0.00,988,weatherlink.com 1.10,2013-06-04 16:04:00,
2013-06-04 11:20:00,87.0,74.0,29.82,South,173,0.0,-999.0,66,-99.99,,,0.00,381,weatherlink.com 1.10,2013-06-04 16:20:00,
2013-06-04 11:35:00,86.6,75.0,29.83,SSE,157,3.0,-999.0,68,-99.99,,,0.00,918,weatherlink.com 1.10,2013-06-04 16:35:00,
2013-06-04 11:50:00,87.5,75.0,29.83,SE,142,5.0,-999.0,67,-99.99,,,0.00,998,weatherlink.com 1.10,2013-06-04 16:50:00,
2013-06-04 12:05:00,88.2,75.0,29.82,East,101,2.0,-999.0,65,-99.99,,,0.00,951,weatherlink.com 1.10,2013-06-04 17:05:00,
2013-06-04 12:20:00,88.2,75.0,29.82,SSE,150,2.0,-999.0,66,-99.99,,,0.00,970,weatherlink.com 1.10,2013-06-04 17:20:00,
2013-06-04 12:35:00,88.3,75.0,29.82,SE,126,3.0,-999.0,64,-99.99,,,0.00,1014,weatherlink.com 1.10,2013-06-04 17:35:00,
2013-06-04 12:50:00,88.3,75.0,29.82,East,83,1.0,-999.0,64,-99.99,,,0.00,977,weatherlink.com 1.10,2013-06-04 17:50:00,
2013-06-04 13:05:00,88.0,75.0,29.82,South,181,1.0,-999.0,65,-99.99,,,0.00,981,weatherlink.com 1.10,2013-06-04 18:05:00,
2013-06-04 13:20:00,87.8,75.0,29.81,East,82,2.0,-999.0,65,-99.99,,,0.00,984,weatherlink.com 1.10,2013-06-04 18:20:00,
2013-06-04 13:35:00,88.4,74.0,29.81,ENE,68,3.0,-999.0,63,-99.99,,,0.00,983,weatherlink.com 1.10,2013-06-04 18:35:00,
2013-06-04 13:50:00,88.2,75.0,29.81,ENE,65,5.0,-999.0,64,-99.99,,,0.00,979,weatherlink.com 1.10,2013-06-04 18:50:00,
2013-06-04 14:05:00,88.1,74.0,29.80,ESE,120,3.0,-999.0,63,-99.99,,,0.00,974,weatherlink.com 1.10,2013-06-04 19:05:00,
2013-06-04 14:20:00,88.0,74.0,29.80,ESE,117,2.0,-999.0,64,-99.99,,,0.00,960,weatherlink.com 1.10,2013-06-04 19:20:00,
2013-06-04 14:35:00,88.0,73.0,29.79,East,82,2.0,-999.0,62,-99.99,,,0.00,946,weatherlink.com 1.10,2013-06-04 19:35:00,
2013-06-04 14:50:00,88.8,73.0,29.79,East,86,10.0,-999.0,60,-99.99,,,0.00,932,weatherlink.com 1.10,2013-06-04 19:50:00,
2013-06-04 15:05:00,87.9,74.0,29.79,East,101,1.0,-999.0,64,-99.99,,,0.00,904,weatherlink.com 1.10,2013-06-04 20:05:00,
2013-06-04 15:20:00,88.7,74.0,29.79,SE,130,2.0,-999.0,62,-99.99,,,0.00,877,weatherlink.com 1.10,2013-06-04 20:20:00,
2013-06-04 15:35:00,88.1,73.0,29.79,East,99,3.0,-999.0,61,-99.99,,,0.00,851,weatherlink.com 1.10,2013-06-04 20:35:00,
2013-06-04 15:50:00,88.4,73.0,29.78,ESE,121,6.0,-999.0,60,-99.99,,,0.00,816,weatherlink.com 1.10,2013-06-04 20:50:00,
2013-06-04 16:05:00,88.2,73.0,29.78,ESE,114,4.0,-999.0,60,-99.99,,,0.00,779,weatherlink.com 1.10,2013-06-04 21:05:00,
2013-06-04 16:20:00,88.0,73.0,29.77,SSE,157,7.0,-999.0,61,-99.99,,,0.00,737,weatherlink.com 1.10,2013-06-04 21:20:00,
2013-06-04 16:35:00,88.0,72.0,29.77,East,90,4.0,-999.0,60,-99.99,,,0.00,696,weatherlink.com 1.10,2013-06-04 21:35:00,
2013-06-04 16:50:00,87.6,73.0,29.77,ENE,76,3.0,-999.0,62,-99.99,,,0.00,652,weatherlink.com 1.10,2013-06-04 21:50:00,
2013-06-04 17:05:00,87.4,73.0,29.77,East,92,4.0,-999.0,62,-99.99,,,0.00,603,weatherlink.com 1.10,2013-06-04 22:05:00,
2013-06-04 17:20:00,87.3,74.0,29.76,East,84,5.0,-999.0,64,-99.99,,,0.00,555,weatherlink.com 1.10,2013-06-04 22:20:00,
2013-06-04 17:35:00,86.5,73.0,29.76,ESE,116,5.0,-999.0,65,-99.99,,,0.00,506,weatherlink.com 1.10,2013-06-04 22:35:00,
2013-06-04 17:50:00,86.2,73.0,29.76,SE,145,4.0,-999.0,65,-99.99,,,0.00,457,weatherlink.com 1.10,2013-06-04 22:50:00,
2013-06-04 18:05:00,86.0,73.0,29.75,SE,132,5.0,-999.0,65,-99.99,,,0.00,403,weatherlink.com 1.10,2013-06-04 23:05:00,
2013-06-04 18:20:00,85.7,73.0,29.75,ESE,119,5.0,-999.0,66,-99.99,,,0.00,350,weatherlink.com 1.10,2013-06-04 23:20:00,
2013-06-04 18:35:00,84.6,72.0,29.75,SE,126,2.0,-999.0,67,-99.99,,,0.00,302,weatherlink.com 1.10,2013-06-04 23:35:00,
2013-06-04 18:50:00,84.2,72.0,29.76,ESE,107,5.0,-999.0,67,-99.99,,,0.00,243,weatherlink.com 1.10,2013-06-04 23:50:00,
2013-06-04 19:05:00,84.1,72.0,29.76,ESE,115,6.0,-999.0,68,-99.99,,,0.00,193,weatherlink.com 1.10,2013-06-05 00:05:00,
2013-06-04 19:20:00,83.3,72.0,29.77,East,98,4.0,-999.0,69,-99.99,,,0.00,139,weatherlink.com 1.10,2013-06-05 00:20:00,
2013-06-04 19:35:00,83.0,73.0,29.77,SSE,150,5.0,-999.0,71,-99.99,,,0.00,77,weatherlink.com 1.10,2013-06-05 00:35:00,
2013-06-04 19:50:00,82.2,72.0,29.77,East,100,6.0,-999.0,72,-99.99,,,0.00,21,weatherlink.com 1.10,2013-06-05 00:50:00,
2013-06-04 20:05:00,81.3,72.0,29.77,East,100,0.0,-999.0,74,-99.99,,,0.00,7,weatherlink.com 1.10,2013-06-05 01:05:00,
2013-06-04 20:20:00,80.6,72.0,29.78,East,96,0.0,-999.0,75,-99.99,,,0.00,0,weatherlink.com 1.10,2013-06-05 01:20:00,
2013-06-04 20:35:00,80.2,72.0,29.78,ESE,113,0.0,-999.0,77,-99.99,,,0.00,0,weatherlink.com 1.10,2013-06-05 01:35:00,
2013-06-04 20:50:00,79.9,73.0,29.78,ESE,108,0.0,-999.0,78,-99.99,,,0.00,0,weatherlink.com 1.10,2013-06-05 01:50:00,
2013-06-04 21:05:00,79.2,72.0,29.78,SSE,161,0.0,-999.0,78,-99.99,,,0.00,0,weatherlink.com 1.10,2013-06-05 02:05:00,
2013-06-04 21:20:00,78.8,72.0,29.78,SE,126,2.0,-999.0,80,-99.99,,,0.00,0,weatherlink.com 1.10,2013-06-05 02:20:00,
2013-06-04 21:35:00,78.4,72.0,29.79,ESE,122,1.0,-999.0,81,-99.99,,,0.00,0,weatherlink.com 1.10,2013-06-05 02:35:00,
2013-06-04 21:50:00,78.2,72.0,29.79,ESE,117,0.0,-999.0,81,-99.99,,,0.00,0,weatherlink.com 1.10,2013-06-05 02:50:00,
2013-06-04 22:05:00,77.9,72.0,29.79,SE,144,3.0,-999.0,82,-99.99,,,0.00,0,weatherlink.com 1.10,2013-06-05 03:05:00,
2013-06-04 22:20:00,77.4,72.0,29.79,ESE,119,1.0,-999.0,82,-99.99,,,0.00,0,weatherlink.com 1.10,2013-06-05 03:20:00,
2013-06-04 22:35:00,77.1,72.0,29.80,SE,130,2.0,-999.0,84,-99.99,,,0.00,0,weatherlink.com 1.10,2013-06-05 03:35:00,
2013-06-04 22:50:00,76.9,72.0,29.80,ESE,113,0.0,-999.0,85,-99.99,,,0.00,0,weatherlink.com 1.10,2013-06-05 03:50:00,
2013-06-04 23:05:00,76.7,72.0,29.80,SE,139,0.0,-999.0,86,-99.99,,,0.00,0,weatherlink.com 1.10,2013-06-05 04:05:00,
2013-06-04 23:20:00,76.5,72.0,29.81,SE,132,0.0,-999.0,86,-99.99,,,0.00,0,weatherlink.com 1.10,2013-06-05 04:20:00,
2013-06-04 23:35:00,76.3,72.0,29.81,SE,142,0.0,-999.0,87,-99.99,,,0.00,0,weatherlink.com 1.10,2013-06-05 04:35:00,
2013-06-04 23:50:00,76.2,72.0,29.81,East,95,2.0,-999.0,87,-99.99,,,0.00,0,weatherlink.com 1.10,2013-06-05 04:50:00,